Location: Unspecified
(0.0000°N, 0.0000°E)
Time: 22:09:15
(UTC+00:00)

FAST 1 (USA 222) - Visible Passes

Search period start: 30 May 2024 00:00
Search period end: 09 June 2024 00:00
Orbit: 613 x 632 km, 72.0° (Epoch: 30 May)

Date Brightness Start Highest point End Pass type
(mag) Time Alt. Az. Time Alt. Az. Time Alt. Az.
30 May ? 19:55:44 10° NNW 19:59:58 44° WSW 20:00:05 44° WSW visible
31 May ? 18:36:12 10° NNE 18:39:28 20° ENE 18:41:55 13° ESE visible
31 May ? 20:15:29 10° WNW 20:18:21 17° WSW 20:19:11 16° WSW visible
01 Jun ? 18:53:28 10° N 18:57:49 54° ENE 19:01:04 17° SSE visible
02 Jun ? 19:11:49 10° NNW 19:16:09 53° WSW 19:20:14 12° S visible
03 Jun ? 19:31:15 10° WNW 19:34:31 20° WSW 19:37:48 10° SSW visible
05 Jun ? 18:27:53 10° NNW 18:32:18 65° WSW 18:36:46 10° S visible
06 Jun ? 18:47:04 10° NW 18:50:39 24° WSW 18:54:16 10° SSW visible
07 Jun ? 05:17:34 10° SSE 05:21:04 23° ESE 05:24:33 10° NE visible
